Weather in Chuyevo-Alabushka

Russia / Tambov Oblast     51°51′14″N   42°05′59″E
temp.,
°C
wind,
m/s
gust,
m/s
humid.,
%
clouds,
%
prec.,
mm/h
press.,
hPa
HPBL,
m
28 september, tue
tue2800:00+8n389226 0.0 1018228
03:00+8nne4791100 0.0 1019426
06:00+7nne4784100 0.0 1021575
09:00+6nne5788100 0.1 1022867
12:00+7ne5688100 0.3 10241012
15:00+7ne4685100 0.5 1025718
18:00+6ne5880100 0.0 1027578
21:00+6ne487796 0.0 1029599
29 september, wed
wed2900:00+4nne35775 0.0 103085
03:00+2nne368615 0.0 1030119
06:00+1nne378762 0.0 1031136
09:00+6ne57655 0.0 1032527
12:00+9ne56485 0.0 10321293
15:00+11ne5642100 0.0 10301451
18:00+7nne35575 0.0 103177
21:00+5ne346413 0.0 103253
30 september, thu
thu3000:00+4nne22705 0.0 103326
03:00+3nne33755 0.0 103333
06:00+2nne33775 0.0 103438
09:00+7ne34575 0.0 1034352
12:00+11ne33455 0.0 10341277
15:00+12nne334434 0.0 10331538
18:00+8ne22585 0.0 103420
21:00+6ne22655 0.0 103519
1 october, fri
fri100:00+5ne22705 0.0 103510
03:00+5nnw227216 0.0 103510
06:00+5nw227298 0.0 103625
09:00+10nnw235715 0.0 1035339
12:00+12n235599 0.0 1035965
15:00+13n235465 0.0 10341268
18:00+12n226296 0.0 103415
21:00+12nne2258100 0.0 103422
2 october, sat
sat200:00+11n2263100 0.0 103426
03:00+11n2270100 0.0 103449
06:00+10n2373100 0.0 103473
09:00+11nne2373100 0.0 1035176
12:00+13nne2266100 0.0 1034453
15:00+13ne2265100 0.0 1034623
18:00+12ene2275100 0.0 103424
21:00+11e2279100 0.0 103441